EST,Max TemperatureF,Mean TemperatureF,Min TemperatureF,Max Dew PointF,MeanDew PointF,Min DewpointF,Max Humidity, Mean Humidity, Min Humidity, Max Sea Level PressureIn, Mean Sea Level PressureIn, Min Sea Level PressureIn, Max VisibilityMiles, Mean VisibilityMiles, Min VisibilityMiles, Max Wind SpeedMPH, Mean Wind SpeedMPH, Max Gust SpeedMPH,PrecipitationIn, CloudCover, Events, WindDirDegrees
2012-2-1,60,47,33,43,37,30,89,65,40,30.06,29.96,29.92,10,10,10,22,5,30,T,5,Rain,272
2012-2-2,40,35,30,33,28,19,92,72,52,30.35,30.14,30.03,10,10,7,16,5,29,0.00,6,,311
2012-2-3,47,37,27,26,22,19,78,58,37,30.51,30.42,30.36,10,10,10,14,3,18,0.00,5,,307
2012-2-4,42,34,26,27,24,22,85,65,45,30.37,30.25,30.14,10,10,10,7,1,9,0.00,2,,260
2012-2-5,40,33,25,25,21,18,85,65,44,30.21,30.17,30.14,10,10,10,13,2,16,0.00,3,,329
2012-2-6,53,37,20,28,22,18,92,61,30,30.20,30.10,29.99,10,10,9,15,4,18,0.00,1,,269
2012-2-7,44,35,25,29,26,22,84,67,49,30.26,30.15,30.03,10,10,10,15,6,18,0.00,6,,317
2012-2-8,33,31,28,28,26,20,92,76,59,30.30,30.18,30.12,10,4,0,7,1,8,0.09,7,Fog-Snow,86
2012-2-9,42,32,22,27,22,17,92,66,39,30.22,30.17,30.13,10,9,4,15,7,20,0.00,2,,274
2012-2-10,39,31,22,26,21,18,88,68,48,30.17,30.05,29.91,10,10,6,15,4,18,T,5,Snow,268
2012-2-11,36,26,16,30,25,3,92,74,56,29.96,29.74,29.63,10,4,0,22,5,32,0.11,8,Fog-Snow,286
2012-2-12,28,22,15,17,11,3,71,61,50,30.04,29.96,29.90,10,10,8,25,14,35,T,7,Snow,277
2012-2-13,41,33,24,21,16,13,68,51,33,30.10,30.05,30.01,10,10,10,21,10,28,0.00,2,,267
2012-2-14,43,37,30,34,27,15,100,74,47,30.09,30.03,29.95,10,8,2,12,2,15,0.07,8,Rain,192
2012-2-15,45,36,26,36,32,23,100,79,57,30.30,30.16,30.03,10,5,1,16,5,20,T,7,,268
2012-2-16,35,31,27,34,31,25,100,92,84,30.28,30.11,29.98,8,2,0,16,4,21,0.49,8,Fog-Rain-Snow,69
2012-2-17,48,39,30,34,28,19,100,66,31,30.09,30.03,29.99,10,6,0,17,5,23,0.01,5,Fog-Rain,283
2012-2-18,41,34,27,34,25,20,85,65,44,30.10,30.01,29.90,10,9,2,18,3,24,0.02,6,Rain-Snow,263
2012-2-19,41,33,25,25,21,17,78,61,44,30.14,30.08,30.01,10,10,10,14,4,21,0.00,5,,354
2012-2-20,43,34,24,21,16,13,75,53,30,30.36,30.25,30.08,10,10,10,15,6,21,0.00,2,,335
2012-2-21,44,33,21,26,20,14,84,62,39,30.35,30.08,29.80,10,10,10,21,6,33,T,3,Rain,103
2012-2-22,56,44,32,35,30,24,89,60,30,29.78,29.63,29.42,10,10,6,24,6,32,T,6,Rain,176
2012-2-23,53,44,35,37,31,21,92,60,28,29.70,29.55,29.38,10,10,2,22,7,31,0.09,5,Rain,269
2012-2-24,45,41,36,38,35,25,92,73,54,29.66,29.51,29.38,10,6,2,33,10,47,0.43,8,Rain,74
2012-2-25,41,35,29,24,18,11,64,52,39,30.19,29.77,29.52,10,10,9,33,19,46,T,6,Snow,277
2012-2-26,42,34,25,23,17,12,75,56,37,30.45,30.38,30.24,10,10,10,18,5,25,0.00,3,,288
2012-2-27,54,38,22,29,23,19,88,60,32,30.38,30.23,30.06,10,10,8,26,5,35,0.00,3,,65
2012-2-28,49,40,30,24,20,16,69,49,28,30.46,30.38,30.33,10,10,10,16,6,23,0.00,2,,305
2012-2-29,39,36,32,37,31,22,92,72,52,30.32,30.00,29.64,10,5,1,20,12,26,0.39,8,Rain-Snow,68